• Join FlightAware (Why Join?)
  • Login
  • US Flag 
01:49AM EDT


 

Airport Tracker/Info


-or-


 

Live Flight TrackerFlight Track Log ✈ ASQ5875 ✈ 05-May-2013 ✈ CYYZ - KORD

Flight Track Log - Related Links

Times and Time Zones

All times are in EDT time to prevent confusion due to time zone crossing. See the ASQ5875 flight status page for this flight to view local times or setup timezone preferences in your user account.

Time Position Orientation Groundspeed Altitude Reporting Facility
EDT Latitude Longitude Course Direction KTS MPH feet Rate Location/Type
07:33PM 43.6667 -79.5833 360° North 100 115 1,000  Level Toronto Center
07:34PM 43.7167 -79.5833 360° North 190 219 3,000 1,800 Climbing Toronto Center
07:35PM 43.7667 -79.6500 316° Northwest 230 265 4,600 1,680 Climbing Toronto Center
07:36PM 43.7667 -79.7500 270° West 250 288 6,400 1,860 Climbing Toronto Center
07:37PM 43.7500 -79.8333 255° West 270 311 8,400 2,040 Climbing Toronto Center
07:38PM 43.7500 -79.9500 270° West 290 334 10,600 1,620 Climbing Toronto Center
07:39PM 43.7500 -80.0667 270° West 310 357 11,700 1,080 Climbing Toronto Center
07:40PM 43.7500 -80.2167 270° West 340 391 12,800 1,200 Climbing Toronto Center
07:41PM 43.7500 -80.3500 270° West 360 414 14,100 1,260 Climbing Toronto Center
07:42PM 43.7500 -80.5167 270° West 370 426 15,400 1,320 Climbing Toronto Center
07:43PM 43.7167 -80.6500 251° West 370 426 16,800 1,200 Climbing Toronto Center
07:44PM 43.6833 -80.7833 251° West 380 437 17,800 1,140 Climbing Toronto Center
07:45PM 43.6500 -80.9167 251° West 380 437 19,100 1,320 Climbing Toronto Center
07:46PM 43.6167 -81.0667 253° West 380 437 20,500 1,260 Climbing Toronto Center
07:47PM 43.5833 -81.2000 251° West 390 449 21,700 960 Climbing Toronto Center
07:48PM 43.5500 -81.3667 255° West 400 460 22,500 600 Climbing Toronto Center
07:49PM 43.5167 -81.5000 251° West 410 472 23,000 480 Climbing Toronto Center
07:51PM 43.4731 -81.7903 258° West 421 484 24,000 480 Climbing Cleveland Center
07:52PM 43.4358 -81.9497 252° West 426 490 24,500 660 Climbing Cleveland Center
07:53PM 43.3983 -82.1061 252° West 431 496 25,400 840 Climbing Cleveland Center
07:54PM 43.3628 -82.2592 252° West 431 496 26,200 780 Climbing Cleveland Center
07:55PM 43.3272 -82.4125 252° West 431 496 27,000 660 Climbing Cleveland Center
07:56PM 43.2914 -82.5625 252° West 426 490 27,600 600 Climbing Cleveland Center
07:57PM 43.2533 -82.7153 251° West 426 490 28,200 540 Climbing Cleveland Center
07:58PM 43.2150 -82.8650 251° West 421 484 28,700 480 Climbing Cleveland Center
07:59PM 43.1725 -83.0114 248° West 421 484 29,200 480 Climbing Cleveland Center
08:00PM 43.1336 -83.1608 250° West 421 484 29,700 360 Climbing Cleveland Center
08:01PM 43.0906 -83.3125 249° West 426 490 30,000 120 Climbing Cleveland Center
08:02PM 43.0472 -83.4669 249° West 431 496 30,000  Level Cleveland Center
08:03PM 43.0014 -83.6267 249° West 436 502 30,000  Level Cleveland Center
08:04PM 42.9597 -83.7864 250° West 448 516 30,000  Level Cleveland Center
08:05PM 42.9444 -83.9556 263° West 448 516 30,000  Level Cleveland Center
08:06PM 42.9269 -84.1250 262° West 453 521 30,000  Level Cleveland Center
08:08PM 42.9000 -84.4244 263° West 445 512 30,000  Level Chicago Center
08:09PM 42.8836 -84.5914 262° West 444 511 30,000  Level Chicago Center
08:10PM 42.8622 -84.7917 262° West 446 513 30,000  Level Chicago Center
08:11PM 42.8447 -84.9572 262° West 443 510 30,000  Level Chicago Center
08:12PM 42.8275 -85.1256 262° West 447 514 30,000 -120 Level Chicago Center
08:13PM 42.8083 -85.2936 261° West 449 517 29,800 -360 Descending Chicago Center
08:14PM 42.7894 -85.4644 261° West 453 521 29,300 -600 Descending Chicago Center
08:15PM 42.7611 -85.6367 257° West 460 529 28,600 -1,500 Descending Chicago Center
08:16PM 42.7306 -85.8069 256° West 459 528 26,200 -3,000 Descending Chicago Center
08:17PM 42.6933 -86.0122 256° West 462 532 22,500 -3,000 Descending Chicago Center
08:18PM 42.6633 -86.1753 256° West 451 519 20,000 -1,260 Descending Chicago Center
08:19PM 42.6331 -86.3372 256° West 442 509 20,000  Level Chicago Center
08:20PM 42.6014 -86.5028 255° West 450 518 20,000 -180 Level Chicago Center
08:21PM 42.5708 -86.6667 256° West 450 518 19,700 -1,800 Descending Chicago Center
08:22PM 42.5372 -86.8192 253° West 430 495 16,400 -3,000 Descending Chicago Center
08:23PM 42.4967 -86.9633 249° West 416 479 13,500 -2,520 Descending Chicago Center
08:24PM 42.4506 -87.1250 249° West 389 448 11,300 -1,620 Descending Chicago Center
08:25PM 42.4150 -87.2583 250° West 380 437 10,200 -660 Descending Chicago Center
08:26PM 42.3794 -87.3875 250° West 370 426 10,000 -120 Descending Chicago Center
08:27PM 42.3456 -87.5083 249° West 358 412 10,000  Level Chicago Center
08:28PM 42.2597 -87.6178 223° Southwest 353 406 10,000  Level Chicago Center
08:29PM 42.1869 -87.6947 218° Southwest 334 384 10,000 -960 Level Chicago Center
08:30PM 42.1258 -87.7583 218° Southwest 283 326 8,100 -1,620 Descending Chicago Center
08:31PM 42.1000 -87.8167 239° Southwest 287 330 7,500 -720 Descending Chicago TRACON
08:32PM 42.0833 -87.9167 257° West 237 273 7,000 -240 Descending Chicago TRACON
08:33PM 42.0500 -88.0000 242° Southwest 213 245 7,000 -480 Level Chicago TRACON
08:34PM 42.0500 -88.0667 270° West 207 238 6,100 -1,020 Descending Chicago TRACON
08:35PM 42.0500 -88.1500 270° West 209 241 5,000 -1,080 Descending Chicago TRACON
08:36PM 42.0417 -88.1750 246° West 219 252 4,500 -1,020 Descending Chicago Center
08:37PM 41.9936 -88.1664 172° South 193 222 3,400 -780 Descending Chicago Center
08:38PM 41.9708 -88.1097 118° Southeast 180 207 2,900 -600 Descending Chicago Center
08:39PM 41.9686 -88.0406 92° East 163 188 2,200 -660 Descending Chicago Center
08:39PM 41.9667 -88.0333 110° East 156 180 2,100 -660 Descending Chicago TRACON
08:40PM 41.9667 -87.9833 90° East 134 154 1,400 -720 Descending Chicago TRACON
08:43PM 41.9667 -87.9000 217° Southwest  Level FlightAware Approximate